Location: Noyers
(47.2770°N, 1.4032°E)
Time: 22:44:14
(UTC+00:00)

Cosmos 44 - Pass Details

Date: 15 May 2026
Orbit: 568 x 782 km, 65.1° (Epoch: 6 June)

Event Time Altitude Azimuth Distance (km) Brightness Sun altitude
Rises 22:32:00 0° 321° (NW) 3,276 8.0 -21.4°
Reaches altitude 10° 22:34:27 10° 319° (NW) 2,339 7.0 -21.5°
Maximum altitude 22:39:50 70° 237° (WSW) 815 3.5 -21.8°
Enters shadow 22:41:01 52° 175° (S) 947 3.5 -21.8°
